DW1980 Weather Reports


Display with metric or nautical units.
time (UTC)temp
F
wind
direction
speed
MPH
gust
MPH
rain 1hr
in
rain 24hr
in
rain mn
in
humidity
%
barometer
mb
20260906220841 68 191 1.0 2.0 0.00 0.04 0.04 86 1016.4
20260906220352 68 203 0.0 2.0 0.00 0.04 0.04 86 1016.3
20260906220116 68 203 0.0 2.0 0.00 0.04 0.04 86 1015.8
20260906220049 68 196 0.0 3.0 0.00 0.04 0.04 85 1015.9
20260906215843 69 175 0.0 3.0 0.00 0.04 0.04 86 1016.2
20260906215335 69 175 1.0 3.0 0.00 0.04 0.04 86 1016.1
20260906214906 69 166 1.0 3.0 0.00 0.04 0.04 86 1016.1
20260906214608 69 117 0.0 3.0 0.00 0.04 0.04 85 1015.7
20260906214545 69 0 0.0 3.0 0.00 0.04 0.04 84 1015.7
20260906214336 69 117 0.0 3.0 0.00 0.04 0.04 85 1016.1
20260906213845 69 167 1.0 3.0 0.00 0.04 0.04 85 1016.1
20260906213356 69 51 1.0 2.0 0.00 0.04 0.04 85 1016.2
20260906213118 69 283 0.0 2.0 0.00 0.04 0.04 85 1015.7
20260906213054 69 0 0.0 2.0 0.00 0.04 0.04 84 1015.8
20260906212843 69 193 0.0 2.0 0.00 0.04 0.04 85 1016.2
20260906212353 70 145 0.0 3.0 0.00 0.04 0.04 85 1016.2
20260906211843 70 164 1.0 3.0 0.00 0.04 0.04 84 1016.0
20260906211606 69 186 0.0 3.0 0.00 0.04 0.04 84 1015.6
20260906211552 70 0 0.0 2.0 0.00 0.04 0.04 84 1015.7
20260906211353 70 171 1.0 2.0 0.00 0.04 0.04 84 1016.1
20260906210844 70 86 0.0 3.0 0.00 0.04 0.04 83 1016.0
20260906210416 70 127 1.0 3.0 0.00 0.04 0.04 83 1016.0
20260906210049 70 153 1.0 3.0 0.00 0.04 0.04 82 1015.6
20260906210004 70 155 1.0 2.0 0.00 0.04 0.04 83 1015.4
20260906205901 71 81 1.0 2.0 0.00 0.04 0.04 83 1015.9
20260906205351 71 93 1.0 3.0 0.00 0.04 0.04 82 1015.9
20260906204842 71 108 1.0 3.0 0.00 0.04 0.04 82 1015.8
20260906204612 70 123 1.0 3.0 0.00 0.04 0.04 82 1015.3
20260906204546 70 123 1.0 3.0 0.00 0.04 0.04 82 1015.4
20260906204351 71 105 1.0 3.0 0.00 0.04 0.04 82 1015.8
20260906203841 71 166 1.0 6.0 0.00 0.04 0.04 82 1015.8
20260906203352 72 151 1.0 6.0 0.00 0.04 0.04 82 1015.7
20260906203116 72 159 2.0 6.0 0.00 0.04 0.04 82 1015.2
20260906203053 72 111 1.0 5.0 0.00 0.04 0.04 82 1015.2
20260906202838 72 188 2.0 5.0 0.00 0.04 0.04 82 1015.6
20260906202348 73 132 1.0 5.0 0.00 0.04 0.04 81 1015.7
20260906201838 73 138 2.0 5.0 0.00 0.04 0.04 80 1015.6
20260906201606 73 185 3.0 5.0 0.00 0.04 0.04 79 1015.1
20260906201553 73 167 1.0 5.0 0.00 0.04 0.04 78 1015.2
20260906201348 74 157 1.0 3.0 0.00 0.04 0.04 78 1015.5
20260906200838 75 86 2.0 3.0 0.00 0.04 0.04 76 1015.4
20260906200349 76 301 2.0 10.0 0.00 0.04 0.04 75 1015.4
20260906200114 77 124 1.0 10.0 0.00 0.04 0.04 73 1014.8
20260906200043 77 138 2.0 10.0 0.00 0.04 0.04 71 1014.8
20260906195835 79 151 2.0 10.0 0.00 0.04 0.04 65 1015.3
20260906195346 79 324 4.0 9.0 0.00 0.04 0.04 55 1015.2
20260906194837 78 346 4.0 9.0 0.00 0.04 0.04 58 1015.1
20260906194625 77 293 3.0 6.0 0.00 0.04 0.04 58 1014.8
20260906194554 77 312 3.0 7.0 0.00 0.04 0.04 59 1014.8
20260906194348 77 325 2.0 5.0 0.00 0.04 0.04 65 1015.2
20260906193839 75 123 0.0 4.0 0.00 0.04 0.04 79 1015.2
20260906193350 76 192 2.0 4.0 0.00 0.04 0.04 73 1015.3
20260906193122 76 223 1.0 3.0 0.00 0.04 0.04 69 1014.9
20260906193053 76 250 1.0 3.0 0.00 0.04 0.04 69 1014.9
20260906192838 77 198 1.0 3.0 0.00 0.04 0.04 71 1015.3
20260906192349 77 195 1.0 3.0 0.00 0.04 0.04 74 1015.3
20260906191859 76 342 1.0 3.0 0.00 0.04 0.04 75 1015.3
20260906191610 76 126 0.0 3.0 0.00 0.04 0.04 78 1014.9
20260906191551 76 0 0.0 4.0 0.00 0.04 0.04 76 1014.9
20260906191349 76 139 1.0 3.0 0.00 0.04 0.04 76 1015.3
20260906190844 76 190 1.0 5.0 0.00 0.04 0.04 77 1015.3
20260906190355 76 207 3.0 5.0 0.00 0.04 0.04 73 1015.3
20260906190107 76 152 1.0 6.0 0.00 0.04 0.04 72 1014.9
20260906190002 76 152 1.0 5.0 0.00 0.04 0.04 73 1014.9
20260906185902 77 163 2.0 5.0 0.00 0.04 0.04 74 1015.4
20260906185349 78 194 3.0 5.0 0.00 0.04 0.04 70 1015.3
20260906184838 78 336 1.0 5.0 0.00 0.04 0.04 70 1015.3
20260906184602 77 132 1.0 5.0 0.00 0.04 0.04 65 1014.9
20260906184550 77 59 1.0 5.0 0.00 0.04 0.04 67 1014.9
20260906184409 77 28 2.0 5.0 0.00 0.04 0.04 68 1015.3
20260906183858 77 36 2.0 4.0 0.00 0.04 0.04 66 1015.4
20260906183349 79 327 2.0 9.0 0.00 0.04 0.04 65 1015.5
20260906183117 78 299 1.0 9.0 0.00 0.04 0.04 66 1014.9
20260906183104 78 342 1.0 9.0 0.00 0.04 0.04 66 1014.9
20260906182856 79 55 2.0 9.0 0.00 0.04 0.04 68 1015.3
20260906182346 78 355 2.0 12.0 0.00 0.04 0.04 61 1015.4
20260906181855 77 40 6.0 12.0 0.00 0.04 0.04 64 1015.4
20260906181545 76 302 1.0 6.0 0.00 0.04 0.04 66 1015.2
20260906181519 76 306 1.0 5.0 0.00 0.04 0.04 69 1015.0
20260906181404 77 59 2.0 6.0 0.00 0.04 0.04 72 1015.5
20260906180851 76 43 1.0 10.0 0.00 0.04 0.04 71 1015.5
20260906180343 76 40 4.0 10.0 0.00 0.04 0.04 70 1015.5
20260906180111 76 303 2.0 7.0 0.00 0.04 0.04 75 1015.2
20260906180107 75 34 2.0 6.0 0.00 0.04 0.04 69 1015.1
20260906175911 76 29 2.0 5.0 0.00 0.04 0.04 76 1015.6
20260906175339 77 16 1.0 5.0 0.00 0.04 0.04 73 1015.5
20260906174909 76 304 2.0 5.0 0.00 0.04 0.04 70 1015.6
20260906174611 75 223 1.0 5.0 0.00 0.04 0.04 73 1015.2
20260906174552 76 142 0.0 6.0 0.00 0.04 0.04 73 1015.2
20260906174358 76 65 2.0 5.0 0.00 0.04 0.04 74 1015.7
20260906173846 76 317 2.0 8.0 0.00 0.04 0.04 68 1015.7
20260906173358 76 289 3.0 8.0 0.00 0.04 0.04 73 1015.6
20260906173119 74 297 3.0 8.0 0.00 0.04 0.04 71 1015.4
20260906173044 74 316 2.0 7.0 0.00 0.04 0.04 70 1015.4
20260906172845 75 277 2.0 7.0 0.00 0.04 0.04 73 1015.9
20260906172354 73 5 2.0 7.0 0.00 0.04 0.04 74 1015.9
20260906171844 74 46 2.0 5.0 0.00 0.04 0.04 72 1016.0
20260906171612 74 296 2.0 9.0 0.00 0.04 0.04 71 1015.5
20260906171544 74 296 2.0 9.0 0.00 0.04 0.04 71 1015.5
20260906171354 74 10 2.0 9.0 0.00 0.04 0.04 72 1016.0
20260906170844 75 42 3.0 9.0 0.00 0.04 0.04 71 1015.9
20260906170357 76 346 4.0 10.0 0.00 0.04 0.04 69 1015.9
20260906170117 75 14 2.0 10.0 0.00 0.04 0.04 75 1015.5
20260906170114 76 331 2.0 10.0 0.00 0.04 0.04 76 1015.5
20260906165844 75 28 4.0 10.0 0.00 0.04 0.04 73 1015.9
20260906165335 75 286 4.0 8.0 0.00 0.04 0.04 77 1015.9
20260906164908 75 300 1.0 6.0 0.00 0.04 0.04 73 1016.0
20260906164618 75 211 0.0 6.0 0.00 0.04 0.04 74 1015.6
20260906164552 75 36 1.0 7.0 0.00 0.04 0.04 75 1015.6
20260906164338 75 252 2.0 6.0 0.00 0.04 0.04 74 1016.1
20260906163849 73 355 1.0 5.0 0.00 0.04 0.04 81 1016.1
20260906163340 72 346 2.0 5.0 0.00 0.04 0.04 76 1016.2
20260906163113 72 15 3.0 5.0 0.00 0.04 0.04 76 1015.8
20260906163047 72 55 2.0 5.0 0.00 0.04 0.04 76 1015.7
20260906162910 72 344 3.0 5.0 0.00 0.04 0.04 78 1016.2
20260906162338 71 317 0.0 5.0 0.00 0.04 0.04 83 1016.2
20260906161848 71 14 3.0 5.0 0.00 0.04 0.04 78 1016.2
20260906161615 71 360 2.0 5.0 0.00 0.04 0.04 80 1015.7
20260906161554 71 355 1.0 5.0 0.00 0.04 0.04 81 1015.7
20260906161336 72 30 0.0 3.0 0.00 0.04 0.04 82 1016.3
20260906160845 70 355 0.0 3.0 0.00 0.04 0.04 84 1016.2
20260906160355 70 29 0.0 3.0 0.00 0.04 0.04 83 1016.2
20260906160121 70 29 1.0 3.0 0.00 0.04 0.04 83 1015.8
20260906160053 70 29 1.0 3.0 0.00 0.04 0.04 81 1015.7
20260906155840 70 298 2.0 3.0 0.00 0.04 0.04 82 1016.3
20260906155350 70 312 1.0 3.0 0.00 0.04 0.04 84 1016.3
20260906154839 70 5 1.0 3.0 0.00 0.04 0.04 83 1016.3
20260906154606 70 294 0.0 3.0 0.00 0.04 0.04 84 1015.8
20260906154550 70 294 0.0 3.0 0.00 0.04 0.04 83 1015.7
20260906154347 71 224 1.0 3.0 0.00 0.04 0.04 84 1016.3
20260906153858 71 160 2.0 3.0 0.00 0.04 0.04 87 1016.3
20260906153347 70 95 0.0 2.0 0.00 0.04 0.04 86 1016.3
20260906153111 69 33 0.0 2.0 0.00 0.04 0.04 86 1015.8
20260906153043 69 0 0.0 2.0 0.00 0.04 0.04 85 1015.8
20260906152915 69 31 0.0 2.0 0.00 0.04 0.04 86 1016.3
20260906152345 69 65 0.0 6.0 0.00 0.04 0.04 86 1016.3
20260906151915 70 5 1.0 6.0 0.00 0.04 0.04 85 1016.3
20260906151608 69 336 1.0 7.0 0.00 0.04 0.04 85 1015.7
20260906151606 69 332 2.0 6.0 0.00 0.04 0.04 84 1015.8
20260906151344 70 284 2.0 6.0 0.00 0.04 0.04 85 1016.2
20260906150854 69 313 2.0 5.0 0.00 0.04 0.04 87 1016.3
20260906150345 69 21 1.0 3.0 0.00 0.04 0.04 87 1016.3
20260906150110 69 38 0.0 3.0 0.00 0.04 0.04 87 1015.9
20260906150051 69 0 0.0 3.0 0.00 0.04 0.04 86 1015.8
20260906145852 69 22 1.0 3.0 0.00 0.04 0.04 87 1016.3
20260906145340 70 108 0.0 2.0 0.00 0.04 0.04 86 1016.3
20260906144910 70 140 1.0 10.0 0.00 0.04 0.04 85 1016.1
20260906144617 69 90 0.0 10.0 0.00 0.04 0.04 84 1015.7
20260906144555 69 0 2.0 10.0 0.00 0.04 0.04 82 1015.6
20260906144359 70 314 3.0 6.0 0.00 0.04 0.04 81 1016.1
20260906143847 70 26 3.0 6.0 0.00 0.04 0.04 83 1016.1
20260906143340 70 355 2.0 8.0 0.00 0.04 0.04 82 1016.1
20260906143119 70 351 2.0 8.0 0.00 0.04 0.04 81 1015.5
20260906143113 70 23 1.0 8.0 0.00 0.04 0.04 82 1015.7
20260906142847 70 360 3.0 8.0 0.00 0.04 0.04 83 1016.1
20260906142340 70 341 3.0 6.0 0.00 0.04 0.04 83 1016.0
20260906141848 69 27 3.0 6.0 0.00 0.04 0.04 83 1016.0
20260906141609 68 304 3.0 8.0 0.00 0.04 0.04 84 1015.5
20260906141551 68 28 2.0 8.0 0.00 0.04 0.04 85 1015.5
20260906141337 68 360 2.0 8.0 0.00 0.04 0.04 85 1016.1
20260906140907 68 347 4.0 8.0 0.00 0.04 0.04 87 1016.0
20260906140357 67 50 3.0 9.0 0.00 0.04 0.04 88 1016.0
20260906140115 67 5 2.0 9.0 0.00 0.04 0.04 87 1015.4
20260906140048 67 0 2.0 9.0 0.00 0.04 0.04 87 1015.4
20260906135842 67 11 3.0 9.0 0.00 0.04 0.04 88 1015.9
20260906135350 67 20 2.0 8.0 0.00 0.04 0.04 89 1015.8
20260906134837 66 15 2.0 6.0 0.00 0.04 0.04 90 1016.0
20260906134622 65 9 2.0 6.0 0.00 0.04 0.04 91 1015.6
20260906134600 65 325 1.0 6.0 0.00 0.04 0.04 90 1015.4
20260906134347 66 345 2.0 6.0 0.00 0.04 0.04 91 1016.0
20260906133837 65 309 2.0 5.0 0.00 0.04 0.04 92 1016.0
20260906133348 65 38 3.0 5.0 0.00 0.04 0.04 92 1015.9
20260906133124 64 355 2.0 5.0 0.00 0.04 0.04 93 1015.5
20260906133057 64 350 1.0 8.0 0.00 0.04 0.04 92 1015.4
20260906132852 65 349 1.0 8.0 0.00 0.04 0.04 93 1016.0
20260906132340 65 360 2.0 8.0 0.00 0.04 0.04 93 1015.9
20260906131852 64 360 1.0 6.0 0.00 0.04 0.04 94 1015.9
20260906131620 64 264 3.0 6.0 0.00 0.04 0.04 94 1015.4
20260906131551 64 10 2.0 5.0 0.00 0.04 0.04 93 1015.2
20260906131342 64 32 2.0 3.0 0.00 0.04 0.04 94 1015.8
20260906130851 64 19 1.0 3.0 0.00 0.04 0.04 94 1015.7
20260906130342 64 330 1.0 3.0 0.00 0.04 0.04 94 1015.7
20260906130108 63 19 1.0 3.0 0.00 0.04 0.04 94 1015.2
20260906130049 63 19 0.0 3.0 0.00 0.04 0.04 94 1015.2
20260906125848 63 65 0.0 3.0 0.00 0.04 0.04 94 1015.6
20260906125338 63 11 1.0 4.0 0.00 0.04 0.04 94 1015.6
20260906124849 63 44 2.0 5.0 0.00 0.04 0.04 94 1015.7
20260906124619 63 23 2.0 5.0 0.00 0.04 0.04 94 1015.3
20260906124555 63 9 2.0 5.0 0.00 0.04 0.04 93 1015.1
20260906124339 63 360 3.0 5.0 0.00 0.04 0.04 94 1015.7
20260906123910 63 17 2.0 4.0 0.00 0.04 0.04 94 1015.6
20260906123341 63 28 1.0 3.0 0.00 0.04 0.04 94 1015.6
20260906123128 63 26 1.0 3.0 0.00 0.04 0.04 94 1015.1
20260906123106 63 21 1.0 3.0 0.00 0.04 0.04 94 1015.1
20260906122848 63 13 1.0 3.0 0.00 0.04 0.04 94 1015.6
20260906122356 63 17 1.0 3.0 0.00 0.04 0.04 94 1015.6
20260906121846 63 26 1.0 3.0 0.00 0.04 0.04 94 1015.6
20260906121615 63 300 1.0 3.0 0.00 0.04 0.04 94 1015.1
20260906121548 63 0 1.0 3.0 0.00 0.04 0.04 94 1015.1
20260906121356 64 304 1.0 3.0 0.00 0.04 0.04 94 1015.6
20260906120845 63 303 1.0 4.0 0.00 0.04 0.04 94 1015.6
20260906120355 63 327 2.0 4.0 0.00 0.04 0.04 94 1015.5
20260906120043 63 342 1.0 4.0 0.00 0.04 0.04 94 1015.0
20260906120004 63 327 2.0 4.0 0.00 0.04 0.04 94 1015.0
20260906115903 63 31 0.0 0.0 0.00 0.04 0.04 94 1015.5
20260906115352 63 26 0.0 0.0 0.00 0.04 0.04 94 1015.4
20260906114844 63 12 0.0 0.0 0.00 0.04 0.04 94 1015.4
20260906114613 63 12 0.0 0.0 0.00 0.04 0.04 94 1014.9
20260906114604 63 0 0.0 0.0 0.00 0.04 0.04 94 1014.8
20260906114335 63 338 0.0 0.0 0.00 0.04 0.04 94 1015.3
20260906113845 63 19 0.0 0.0 0.00 0.04 0.04 94 1015.2
20260906113356 63 24 0.0 0.0 0.00 0.04 0.04 94 1015.2
20260906113054 62 0 0.0 0.0 0.00 0.04 0.04 93 1014.6
20260906113006 62 355 0.0 0.0 0.00 0.04 0.04 94 1014.7
20260906112902 63 355 0.0 0.0 0.00 0.04 0.04 94 1015.1
20260906112351 63 355 0.0 0.0 0.00 0.04 0.04 94 1015.0
20260906111843 63 355 0.0 0.0 0.00 0.04 0.04 94 1014.9
20260906111611 62 355 0.0 0.0 0.00 0.04 0.04 94 1014.5
20260906111549 62 0 0.0 0.0 0.00 0.04 0.04 94 1014.4
20260906111355 63 355 0.0 0.0 0.00 0.04 0.04 94 1015.0
20260906110844 63 5 0.0 0.0 0.00 0.04 0.04 94 1014.9
20260906110341 63 5 0.0 1.0 0.00 0.04 0.04 94 1014.8
20260906110121 62 5 0.0 2.0 0.00 0.04 0.04 94 1014.4
20260906110043 62 0 0.0 2.0 0.00 0.04 0.04 93 1014.4
20260906105847 62 14 0.0 2.0 0.00 0.04 0.04 94 1014.8
20260906105338 62 348 1.0 2.0 0.00 0.04 0.04 94 1014.8
20260906104847 62 34 1.0 3.0 0.00 0.04 0.04 94 1014.7
20260906104609 62 19 0.0 3.0 0.00 0.04 0.04 94 1014.2
20260906104550 62 0 1.0 3.0 0.00 0.04 0.04 93 1014.1
20260906104336 62 16 1.0 3.0 0.00 0.04 0.04 94 1014.6
20260906103849 62 5 1.0 3.0 0.00 0.04 0.04 94 1014.6
20260906103400 62 355 2.0 3.0 0.00 0.04 0.04 94 1014.5
20260906103120 62 351 2.0 3.0 0.00 0.04 0.04 94 1014.0
20260906103049 62 5 1.0 3.0 0.00 0.04 0.04 93 1014.0
20260906102846 62 31 1.0 2.0 0.00 0.04 0.04 94 1014.4
20260906102414 63 360 0.0 1.0 0.00 0.04 0.04 94 1014.1
20260906101843 63 346 0.0 0.0 0.00 0.04 0.04 94 1014.1
20260906101608 62 346 0.0 0.0 0.00 0.04 0.04 94 1013.6
20260906101551 62 0 0.0 0.0 0.00 0.04 0.04 93 1013.7
20260906101353 63 346 0.0 0.0 0.00 0.04 0.04 94 1014.0
20260906100900 63 346 0.0 0.0 0.00 0.04 0.04 94 1014.0
20260906100350 63 346 0.0 1.0 0.00 0.04 0.04 94 1013.9
20260906100113 63 346 0.0 1.0 0.00 0.04 0.04 94 1013.4
20260906100053 63 0 0.0 1.0 0.00 0.04 0.04 93 1013.4
20260906095917 63 346 0.0 1.0 0.00 0.04 0.04 94 1013.9
20260906095344 64 16 0.0 0.0 0.00 0.04 0.04 94 1013.9
20260906094853 64 16 0.0 0.0 0.00 0.04 0.04 94 1014.0
20260906094617 63 16 0.0 1.0 0.00 0.04 0.04 94 1013.5
20260906094602 63 0 0.0 2.0 0.00 0.04 0.04 93 1013.6
20260906094344 64 16 0.0 1.0 0.00 0.04 0.04 94 1014.0
20260906093854 64 16 0.0 3.0 0.00 0.04 0.04 94 1014.0
20260906093407 64 19 0.0 3.0 0.00 0.04 0.04 94 1014.0
20260906093133 63 19 1.0 3.0 0.00 0.04 0.04 94 1013.4
20260906093047 63 19 0.0 3.0 0.00 0.04 0.04 93 1013.5
20260906092851 64 341 0.0 1.0 0.00 0.04 0.04 94 1013.9
20260906092339 64 341 0.0 1.0 0.00 0.04 0.04 94 1013.8
20260906091910 64 341 0.0 1.0 0.00 0.04 0.04 94 1013.8
20260906091613 63 341 0.0 1.0 0.00 0.04 0.04 94 1013.3
20260906091603 63 0 0.0 1.0 0.00 0.04 0.04 93 1013.3
20260906091338 64 342 0.0 1.0 0.00 0.04 0.04 94 1013.7
20260906090848 64 341 0.0 1.0 0.00 0.04 0.04 94 1013.7
20260906090340 64 341 0.0 1.0 0.00 0.04 0.04 94 1013.6
20260906090104 63 342 0.0 0.0 0.00 0.04 0.04 94 1013.0
20260906090054 63 0 0.0 0.0 0.00 0.04 0.04 93 1013.1
20260906085846 64 342 0.0 0.0 0.00 0.04 0.04 94 1013.4
20260906085337 64 341 0.0 1.0 0.00 0.04 0.04 94 1013.4
20260906084847 63 341 0.0 1.0 0.00 0.04 0.04 94 1013.4
20260906084616 63 341 0.0 1.0 0.00 0.04 0.04 94 1013.0
20260906084551 63 0 0.0 1.0 0.00 0.04 0.04 93 1013.1
20260906084337 63 319 0.0 1.0 0.00 0.04 0.04 94 1013.5
20260906083908 63 229 0.0 1.0 0.00 0.04 0.04 94 1013.5
20260906083357 63 229 0.0 1.0 0.00 0.04 0.04 94 1013.5
20260906083102 63 229 0.0 1.0 0.00 0.04 0.04 94 1013.0
20260906083043 63 0 0.0 1.0 0.00 0.04 0.04 93 1013.0
20260906082844 63 229 0.0 1.0 0.00 0.04 0.04 94 1013.4
20260906082354 63 229 0.0 0.0 0.01 0.04 0.04 94 1013.2
20260906081904 64 229 0.0 0.0 0.01 0.04 0.04 94 1013.2
20260906081612 63 229 0.0 0.0 0.01 0.04 0.04 93 1012.7
20260906081551 63 0 0.0 0.0 0.01 0.04 0.04 93 1012.7
20260906081415 64 229 0.0 0.0 0.01 0.04 0.04 93 1013.2
20260906080905 64 229 0.0 0.0 0.04 0.04 0.04 93 1013.2
20260906080356 64 229 0.0 0.0 0.04 0.04 0.04 93 1013.2
20260906080053 63 0 0.0 0.0 0.04 0.04 0.04 93 1012.8
20260906080009 63 229 0.0 0.0 0.04 0.04 0.04 93 1012.8
20260906075904 64 229 0.0 0.0 0.04 0.04 0.04 94 1013.3
20260906075415 64 229 0.0 0.0 0.04 0.04 0.04 94 1013.3
20260906074906 64 229 0.0 1.0 0.04 0.04 0.04 94 1013.3
20260906074615 64 229 0.0 1.0 0.04 0.04 0.04 94 1012.9
20260906074552 64 0 0.0 1.0 0.04 0.04 0.04 93 1012.9
20260906074354 64 229 0.0 1.0 0.04 0.04 0.04 94 1013.3
20260906073844 64 229 0.0 2.0 0.04 0.04 0.04 94 1013.2
20260906073357 64 229 0.0 2.0 0.04 0.04 0.04 93 1013.2
20260906073122 64 229 0.0 2.0 0.04 0.04 0.04 93 1012.8
20260906073048 64 331 0.0 2.0 0.04 0.04 0.04 93 1012.8
20260906072844 64 331 0.0 2.0 0.04 0.04 0.04 93 1013.3
20260906072352 64 331 1.0 2.0 0.03 0.03 0.03 93 1013.2
20260906071905 64 355 0.0 1.0 0.03 0.03 0.03 93 1013.2
20260906071612 64 355 0.0 1.0 0.03 0.03 0.03 93 1012.8
20260906071546 64 0 0.0 1.0 0.03 0.03 0.03 93 1012.9
20260906071354 64 355 0.0 1.0 0.02 0.02 0.02 93 1013.3
20260906070844 64 355 0.0 2.0 0.00 0.00 0.00 93 1013.3
20260906070354 64 355 0.0 2.0 0.00 0.00 0.00 93 1013.3
20260906070119 63 355 0.0 2.0 0.00 0.00 0.00 93 1012.8
20260906070051 63 355 0.0 2.0 0.00 0.00 0.00 93 1012.9
20260906065842 64 355 1.0 2.0 0.00 0.00 0.00 93 1013.2
20260906065353 64 17 0.0 1.0 0.00 0.00 0.00 93 1013.2
20260906064845 64 17 0.0 0.0 0.00 0.00 0.00 93 1013.2
20260906064613 63 17 0.0 1.0 0.00 0.00 0.00 93 1012.8
20260906064543 63 0 0.0 2.0 0.00 0.00 0.00 93 1012.8
20260906064355 64 17 0.0 2.0 0.00 0.00 0.00 93 1013.2
20260906063845 64 17 0.0 2.0 0.00 0.00 0.00 93 1013.2
20260906063358 63 360 1.0 2.0 0.00 0.00 0.00 93 1013.3
20260906063121 63 304 0.0 2.0 0.00 0.00 0.00 93 1012.9
20260906063058 63 0 0.0 2.0 0.00 0.00 0.00 93 1013.0
20260906062843 63 304 0.0 2.0 0.00 0.00 0.00 93 1013.3
20260906062338 63 304 0.0 1.0 0.00 0.00 0.00 93 1013.4
20260906061848 63 304 0.0 1.0 0.00 0.00 0.00 93 1013.4
20260906061612 63 304 0.0 1.0 0.00 0.00 0.00 93 1013.0
20260906061554 63 0 0.0 1.0 0.00 0.00 0.00 93 1013.1
20260906061359 63 304 0.0 1.0 0.00 0.00 0.00 93 1013.4
20260906060848 63 304 0.0 1.0 0.00 0.00 0.00 93 1013.5
20260906060414 63 304 0.0 1.0 0.00 0.00 0.00 93 1013.5
20260906060117 62 304 0.0 1.0 0.00 0.00 0.00 93 1013.0
20260906060052 62 0 0.0 1.0 0.00 0.00 0.00 92 1013.1
20260906055844 63 304 0.0 1.0 0.00 0.00 0.00 93 1013.4
20260906055355 63 304 0.0 0.0 0.00 0.00 0.00 93 1013.5
20260906054844 63 304 0.0 0.0 0.00 0.00 0.00 93 1013.4
20260906054611 62 304 0.0 0.0 0.00 0.00 0.00 93 1013.0
20260906054556 62 0 0.0 0.0 0.00 0.00 0.00 92 1013.1
20260906054414 63 304 0.0 0.0 0.00 0.00 0.00 93 1013.4
20260906053844 63 304 0.0 0.0 0.00 0.00 0.00 93 1013.5
20260906053355 63 304 0.0 0.0 0.00 0.00 0.00 92 1013.4
20260906053115 62 304 0.0 1.0 0.00 0.00 0.00 92 1013.0
20260906053102 62 0 0.0 1.0 0.00 0.00 0.00 92 1013.2
20260906052842 63 304 0.0 1.0 0.00 0.00 0.00 92 1013.4
20260906052352 63 304 0.0 1.0 0.00 0.00 0.00 92 1013.4
20260906051842 63 304 0.0 1.0 0.00 0.00 0.00 93 1013.4
20260906051609 63 304 0.0 1.0 0.00 0.00 0.00 93 1013.0
20260906051601 63 0 0.0 2.0 0.00 0.00 0.00 92 1013.1
20260906051354 63 304 0.0 2.0 0.00 0.00 0.00 93 1013.4
20260906050845 63 304 0.0 2.0 0.00 0.00 0.00 93 1013.4
20260906050357 63 239 0.0 3.0 0.00 0.00 0.00 92 1013.3
20260906050122 62 239 0.0 3.0 0.00 0.00 0.00 92 1012.9
20260906050057 62 0 1.0 3.0 0.00 0.00 0.00 92 1013.1
20260906045844 63 239 2.0 3.0 0.00 0.00 0.00 92 1013.3
20260906045355 63 333 1.0 3.0 0.00 0.00 0.00 92 1013.4
20260906044844 63 355 0.0 2.0 0.00 0.00 0.00 92 1013.4
20260906044613 62 355 0.0 2.0 0.00 0.00 0.00 92 1012.9
20260906044552 62 0 0.0 2.0 0.00 0.00 0.00 91 1013.1
20260906044355 63 355 1.0 2.0 0.00 0.00 0.00 92 1013.5
20260906043846 63 334 0.0 0.0 0.00 0.00 0.00 92 1013.4
20260906043354 63 334 0.0 0.0 0.00 0.00 0.00 92 1013.4
20260906043118 62 334 0.0 0.0 0.00 0.00 0.00 92 1012.9
20260906043053 62 0 0.0 0.0 0.00 0.00 0.00 91 1013.1
20260906042839 63 334 0.0 0.0 0.00 0.00 0.00 92 1013.4
20260906042412 63 334 0.0 1.0 0.00 0.00 0.00 92 1013.3
20260906041842 63 334 0.0 1.0 0.00 0.00 0.00 92 1013.3
20260906041610 63 334 0.0 1.0 0.00 0.00 0.00 92 1012.9
20260906041558 63 334 0.0 1.0 0.00 0.00 0.00 91 1013.1
20260906041353 63 340 0.0 1.0 0.00 0.00 0.00 92 1013.4
20260906040843 63 18 0.0 1.0 0.00 0.00 0.00 91 1013.4
20260906040355 63 18 0.0 1.0 0.00 0.00 0.00 91 1013.4
20260906040120 63 18 0.0 0.0 0.00 0.00 0.00 91 1012.9
20260906040057 63 0 0.0 0.0 0.00 0.00 0.00 90 1013.1
20260906035842 63 18 0.0 0.0 0.00 0.00 0.00 91 1013.4
20260906035352 63 18 0.0 1.0 0.00 0.00 0.00 91 1013.3
20260906034841 64 18 0.0 1.0 0.00 0.00 0.00 91 1013.3
20260906034609 63 18 0.0 1.0 0.00 0.00 0.00 91 1012.8
20260906034551 63 18 0.0 1.0 0.00 0.00 0.00 90 1013.0
20260906034412 64 18 0.0 0.0 0.00 0.00 0.00 91 1013.2
20260906033841 64 18 0.0 1.0 0.00 0.00 0.00 91 1013.3
20260906033352 64 18 0.0 1.0 0.00 0.00 0.00 91 1013.2
20260906033120 63 18 0.0 1.0 0.00 0.00 0.00 91 1012.8
20260906033100 63 0 0.0 1.0 0.00 0.00 0.00 90 1013.1
20260906032840 64 322 0.0 1.0 0.00 0.00 0.00 91 1013.2
20260906032350 64 322 0.0 1.0 0.00 0.00 0.00 90 1013.1
20260906031844 64 312 0.0 1.0 0.00 0.00 0.00 90 1013.1
20260906031606 64 312 0.0 1.0 0.00 0.00 0.00 90 1012.5
20260906031554 64 312 0.0 2.0 0.00 0.00 0.00 90 1012.9
20260906031351 64 312 0.0 2.0 0.00 0.00 0.00 90 1013.0
20260906030840 65 312 0.0 2.0 0.00 0.00 0.00 90 1013.0
20260906030410 65 321 1.0 2.0 0.00 0.00 0.00 90 1012.9
20260906030106 64 5 0.0 0.0 0.00 0.00 0.00 90 1012.5
20260906030054 64 0 0.0 0.0 0.00 0.00 0.00 89 1012.8
20260906025852 65 5 0.0 0.0 0.00 0.00 0.00 90 1013.0
20260906025342 65 5 0.0 2.0 0.00 0.00 0.00 90 1013.0
20260906024849 65 5 0.0 2.0 0.00 0.00 0.00 90 1013.0
20260906024611 65 5 0.0 2.0 0.00 0.00 0.00 89 1012.5
20260906024553 65 0 0.0 2.0 0.00 0.00 0.00 89 1012.9
20260906024356 65 46 0.0 2.0 0.00 0.00 0.00 89 1013.0
20260906023843 65 46 0.0 2.0 0.00 0.00 0.00 89 1013.1
20260906023355 65 19 0.0 1.0 0.00 0.00 0.00 89 1013.0
20260906023113 65 19 0.0 1.0 0.00 0.00 0.00 89 1012.4
20260906023056 65 0 0.0 2.0 0.00 0.00 0.00 88 1012.8
20260906022840 65 19 0.0 2.0 0.00 0.00 0.00 89 1012.9
20260906022350 66 10 1.0 2.0 0.00 0.00 0.00 89 1012.9
20260906021839 66 360 1.0 2.0 0.00 0.00 0.00 89 1012.7
20260906021611 65 11 0.0 2.0 0.00 0.00 0.00 88 1012.3
20260906021558 65 0 0.0 2.0 0.00 0.00 0.00 88 1012.7
20260906021410 66 17 0.0 2.0 0.00 0.00 0.00 88 1012.7
20260906020858 66 13 1.0 2.0 0.00 0.00 0.00 88 1012.8
20260906020348 66 355 0.0 2.0 0.00 0.00 0.00 88 1012.8
20260906020107 66 355 0.0 2.0 0.00 0.00 0.00 88 1012.3
20260906020104 66 0 0.0 2.0 0.00 0.00 0.00 88 1012.7
20260906015853 66 355 0.0 2.0 0.00 0.00 0.00 88 1012.7
20260906015341 66 355 0.0 1.0 0.00 0.00 0.00 88 1012.7
20260906014852 66 355 0.0 1.0 0.00 0.00 0.00 88 1012.7
20260906014650 66 355 0.0 2.0 0.00 0.00 0.00 88 1012.3
20260906014543 66 0 0.0 3.0 0.00 0.00 0.00 87 1012.6
20260906014341 66 355 0.0 3.0 0.00 0.00 0.00 88 1012.8
20260906013852 66 355 0.0 3.0 0.00 0.00 0.00 87 1012.7
20260906013343 66 355 1.0 2.0 0.00 0.00 0.00 87 1012.6
20260906013108 66 351 0.0 2.0 0.00 0.00 0.00 87 1012.2
20260906013106 66 0 0.0 2.0 0.00 0.00 0.00 87 1012.5
20260906012850 66 348 0.0 2.0 0.00 0.00 0.00 87 1012.6
20260906012342 66 342 0.0 2.0 0.00 0.00 0.00 87 1012.6
20260906011854 66 14 1.0 2.0 0.00 0.00 0.00 87 1012.6
20260906011606 66 14 0.0 2.0 0.00 0.00 0.00 87 1012.1
20260906011604 66 0 0.0 1.0 0.00 0.00 0.00 86 1012.4
20260906011344 67 14 0.0 1.0 0.00 0.00 0.00 87 1012.6
20260906010855 67 14 0.0 1.0 0.00 0.00 0.00 86 1012.6
20260906010346 67 14 0.0 1.0 0.00 0.00 0.00 86 1012.5
20260906010112 66 30 0.0 1.0 0.00 0.00 0.00 86 1011.9
20260906010051 66 0 0.0 1.0 0.00 0.00 0.00 85 1012.2
20260906005854 67 30 0.0 1.0 0.00 0.00 0.00 86 1012.4
20260906005344 67 33 0.0 1.0 0.00 0.00 0.00 86 1012.3
20260906004853 67 33 0.0 0.0 0.00 0.00 0.00 85 1012.3
20260906004621 67 33 0.0 0.0 0.00 0.00 0.00 85 1011.8
20260906004543 67 0 0.0 0.0 0.00 0.00 0.00 84 1012.0
20260906004343 68 33 0.0 0.0 0.00 0.00 0.00 84 1012.2
20260906003854 68 33 0.0 1.0 0.00 0.00 0.00 84 1012.2
20260906003345 68 33 0.0 1.0 0.00 0.00 0.00 84 1012.2
20260906003116 68 22 0.0 1.0 0.00 0.00 0.00 85 1011.6
20260906003103 68 0 0.0 1.0 0.00 0.00 0.00 84 1011.9
20260906002852 69 22 0.0 1.0 0.00 0.00 0.00 85 1012.1
20260906002341 69 360 0.0 1.0 0.00 0.00 0.00 84 1012.1
20260906001618 69 360 0.0 2.0 0.00 0.00 0.00 82 1011.4
20260906001555 69 0 0.0 2.0 0.00 0.00 0.00 82 1011.7
20260906001342 69 360 1.0 2.0 0.00 0.00 0.00 81 1011.9
20260906000851 69 360 1.0 2.0 0.00 0.00 0.00 81 1011.8
20260906000341 70 328 0.0 2.0 0.00 0.00 0.00 81 1011.8
20260906000124 69 21 0.0 2.0 0.00 0.00 0.00 81 1011.3
20260906000057 69 21 0.0 2.0 0.00 0.00 0.00 80 1011.6
20260905235848 70 21 1.0 2.0 0.00 0.00 0.00 81 1011.7
20260905235356 70 21 1.0 3.0 0.00 0.00 0.00 80 1011.6
20260905234906 71 15 2.0 3.0 0.00 0.00 0.00 81 1011.6
20260905234612 70 17 0.0 2.0 0.00 0.00 0.00 81 1011.1
20260905234545 70 331 0.0 1.0 0.00 0.00 0.00 80 1011.5
20260905234354 71 293 0.0 1.0 0.00 0.00 0.00 81 1011.6
20260905233844 72 286 0.0 1.0 0.00 0.00 0.00 82 1011.6
20260905233353 72 286 0.0 1.0 0.00 0.00 0.00 80 1011.5
20260905233111 71 286 0.0 1.0 0.00 0.00 0.00 79 1011.0
20260905233052 71 0 0.0 1.0 0.00 0.00 0.00 78 1011.4
20260905232837 72 286 0.0 1.0 0.00 0.00 0.00 78 1011.6
20260905232346 72 286 0.0 2.0 0.00 0.00 0.00 77 1011.5
20260905231854 73 286 1.0 4.0 0.00 0.00 0.00 76 1011.4
20260905231618 72 314 0.0 4.0 0.00 0.00 0.00 76 1011.0
20260905231555 72 314 0.0 4.0 0.00 0.00 0.00 75 1011.3
20260905231343 73 320 1.0 4.0 0.00 0.00 0.00 76 1011.4
20260905230851 73 17 0.0 3.0 0.00 0.00 0.00 80 1011.4
20260905230359 74 355 0.0 3.0 0.00 0.00 0.00 76 1011.4
20260905230054 74 331 0.0 3.0 0.00 0.00 0.00 76 1011.2
20260905230007 74 331 0.0 3.0 0.00 0.00 0.00 78 1010.9
20260905225906 74 332 0.0 3.0 0.00 0.00 0.00 77 1011.3
20260905225335 75 313 0.0 2.0 0.00 0.00 0.00 78 1011.2
20260905224847 75 332 0.0 5.0 0.00 0.00 0.00 77 1011.1
20260905224615 75 332 0.0 5.0 0.00 0.00 0.00 74 1010.6
20260905224550 75 0 0.0 5.0 0.00 0.00 0.00 71 1011.0
20260905224336 75 331 1.0 5.0 0.00 0.00 0.00 70 1011.1
20260905223847 76 331 1.0 4.0 0.00 0.00 0.00 70 1011.1
20260905223357 76 10 1.0 4.0 0.00 0.00 0.00 67 1011.0
20260905223102 76 13 1.0 6.0 0.00 0.00 0.00 70 1010.6
20260905223054 76 352 1.0 8.0 0.00 0.00 0.00 67 1010.8
20260905222844 76 315 1.0 8.0 0.00 0.00 0.00 66 1011.0
20260905222354 76 327 2.0 8.0 0.00 0.00 0.00 66 1011.0
20260905221843 76 22 2.0 6.0 0.00 0.00 0.00 65 1010.9
20260905221617 76 350 2.0 6.0 0.00 0.00 0.00 65 1010.5
20260905221555 76 345 2.0 6.0 0.00 0.00 0.00 64 1010.7
20260905221353 77 338 3.0 6.0 0.00 0.00 0.00 68 1010.9